Regional Weather Roundup
Issued by NWS

Home | Current Version | Previous Version | Graphics & Text | Print | Product List | Glossary On
Versions: 1 2 3 4 5 6 7 8 9 10 11 12 13 14 15 16 17 18 19 20 21 22 23 24 25 26 27 28 29 30 31 32 33 34 35 36 37 38 39 40 41 42 43 44 45 46 47 48 49 50
000
ASUS43 KLOT 200610
RWRIL

ILLINOIS REGIONAL WEATHER ROUNDUP
NATIONAL WEATHER SERVICE CHICAGO/ROMEOVILLE IL
100 AM CDT MON OCT 20 2014

NOTE: "FAIR" INDICATES FEW OR NO CLOUDS BELOW 12,000 FEET WITH NO
SIGNIFICANT WEATHER AND/OR OBSTRUCTIONS TO VISIBILITY.

* THESE STATIONS ARE NOT UNDER NWS QUALITY CONTROL. THEY ALSO MAY NOT
  REPORT WEATHER SUCH AS PRECIPITATION OR FOG.

ILZ001-002-007-009-015-016-024-200700-
NORTHWEST ILLINOIS

CITY           SKY/WX    TMP DP  RH WIND       PRES   REMARKS
MOLINE         CLEAR     52  43  71 W9        29.88F
6HR MIN TEMP:  52; 6HR MAX TEMP:  58;

STERLING*      CLEAR     48  43  81 W3        29.88F
SAVANNA*       CLEAR     49  42  76 S6        29.85F
$$

ILZ003-004-008-010-011-017-018-200700-
NORTH CENTRAL ILLINOIS

CITY           SKY/WX    TMP DP  RH WIND       PRES   REMARKS
ROCKFORD       CLEAR     48  42  80 S9        29.87F
6HR MIN TEMP:  48; 6HR MAX TEMP:  52;

FREEPORT*      CLEAR     49  42  78 SW12      29.86F
ROCHELLE*      PTCLDY    47  43  85 CALM      29.88F
DE KALB*       PTCLDY    46  42  86 S10       29.88F
PERU*          PTCLDY    52  45  75 SW12      29.90F
$$

ILZ005-006-012>014-019>023-200700-
NORTHEAST ILLINOIS

CITY           SKY/WX    TMP DP  RH WIND       PRES   REMARKS
CHICAGO-OHARE  MOCLDY    52  43  71 SW9       29.88F
6HR MIN TEMP:  51; 6HR MAX TEMP:  54;

CHICAGO-MIDWAY MOCLDY    52  45  77 SW10      29.90F
6HR MIN TEMP:  52; 6HR MAX TEMP:  55;

AURORA         MOCLDY    50  43  77 S10       29.89F
6HR MIN TEMP:  50; 6HR MAX TEMP:  54;

LANSING*       MOCLDY    49  44  81 SW9       29.93F
JOLIET*        PTCLDY    48  43  82 S6        29.91F
WAUKEGAN       MOCLDY    51  42  71 SW15      29.84F
6HR MIN TEMP:  50; 6HR MAX TEMP:  52;

DUPAGE AIRPORT MOCLDY    50  43  77 S10       29.88F
6HR MIN TEMP:  50; 6HR MAX TEMP:  54;

KANKAKEE*      MOCLDY    48  44  85 S9        29.95F
WHEELING       MOCLDY    54  43  66 SW10      29.89F
6HR MIN TEMP:  53; 6HR MAX TEMP:  55;

MORRIS*        MOCLDY    50  46  84 SW9       29.91F
ROMEOVILLE*    MOCLDY    50  43  77 SW9       29.91F
NORTHERLY ISL    N/A     53  43  68 S8          N/A
$$

LMZ740>746-200700-
SOUTHERN LAKE MICHIGAN

STATION/POSITION SKY/WX   TEMP    WIND        PRES    VSBY  WAVE
                          AIR SEA DIR/SP/G                  HT/PER
                          (F)     (DEG/KT/KT) (MB)    (MI)  (FT/S)
SOUTHERN BUOY              55 55  210/ 19/ 23 1010.8F         4/ 6
WAUKEGAN HARBOR            54     230/ 16/ 23   N/A
HARRISON CRIB              53     210/ 25/ 31   N/A
BURNHAM HARBOR             53     190/  8/ 12   N/A
CALUMET HARBOR             52     200/  9/ 13 1011.7F
MICHIGAN CITY              51     170/ 15/ 18   N/A
$$

ILZ025>027-034>036-040-047-049-050-058-095>099-200700-
WEST-CENTRAL ILLINOIS

CITY           SKY/WX    TMP DP  RH WIND       PRES   REMARKS
QUINCY         CLEAR     51  44  77 S7        29.96F
GALESBURG*     CLEAR     47  43  86 S7        29.91F
MACOMB*        PTCLDY    51  45  78 SW6       29.95F
JACKSONVILLE*  MOCLDY    56  46  71 SW9       29.97F
PITTSFIELD*    MOCLDY    54  46  72 SW7       29.99F
$$

ILZ028>032-037-038-041>044-048-051>054-059>061-200700-
CENTRAL ILLINOIS

CITY           SKY/WX    TMP DP  RH WIND       PRES   REMARKS
PONTIAC        PTCLDY    52  46  82 S8        29.94F
BLOOMINGTON    MOCLDY    51  46  83 S10       29.97F
DECATUR        CLOUDY    53  46  77 SW12      29.99F
PEORIA         PTCLDY    51  45  79 S8        29.94F
6HR MIN TEMP:  50; 6HR MAX TEMP:  57;

LACON*         CLEAR     52  45  76 SW8       29.91F
LINCOLN*       CLOUDY    51  45  80 S3        29.96F
SPRINGFIELD    CLOUDY    54  46  74 SW6       29.98F
6HR MIN TEMP:  51; 6HR MAX TEMP:  56;

TAYLORVILLE    CLOUDY    52  45  76 S8        29.99F
$$

ILZ033-039-045-046-055>057-062-063-200700-
EAST-CENTRAL ILLINOIS

CITY           SKY/WX    TMP DP  RH WIND       PRES   REMARKS
CHAMPAIGN      CLOUDY    50  45  83 MISG      29.99F
DANVILLE*      LGT RAIN  48  44  85 SW10      29.98S
RANTOUL*       CLOUDY    53  44  72 SW8       29.98F
MATTOON        CLOUDY    50  43  77 S8        30.00F
PARIS*         MOCLDY    49  45  84 SW5       30.02S
$$

ILZ079-100>102-200700-
SOUTHWEST ILLINOIS

CITY           SKY/WX    TMP DP  RH WIND       PRES   REMARKS
ALTON          CLOUDY    55  47  75 SW5       30.02S
BELLEVILLE     MOCLDY    53  48  83 SW6       30.02S
CAHOKIA*       MOCLDY    57  47  69 SW5       30.02S
SPARTA*        PTCLDY    52  46  81 S5        30.04F
$$

ILZ064>066-069>071-074>076-080>082-084>086-088>090-092>094-200700-
SOUTH-CENTRAL ILLINOIS

CITY           SKY/WX    TMP DP  RH WIND       PRES   REMARKS
CARBONDALE     PTCLDY    43  40  89 CALM      30.05F
6HR MIN TEMP:  42; 6HR MAX TEMP:  51;

CAIRO*         CLEAR     48  44  86 CALM      30.08R
EFFINGHAM*     CLOUDY    51  42  71 S5        30.02F
MARION         PTCLDY    48  45  87 S5        30.06F
MT. VERNON     MOCLDY    48  45  87 CALM      30.05F
CENTRALIA*     RAIN      53  45  74 S8        30.03F
SALEM*         LGT RAIN  55  49  79 SW9       30.03F
METROPOLIS*    PTCLDY    45  45 100 CALM      30.07S FOG
$$

ILZ067-068-072-073-078-083-087-091-200700-
SOUTHEAST ILLINOIS

CITY           SKY/WX    TMP DP  RH WIND       PRES   REMARKS
LAWRENCEVILLE  PTCLDY    46  44  93 S5        30.05F FOG
FLORA*         PTCLDY    50  46  86 S5        30.04F
FAIRFIELD*     CLOUDY    49  46  88 CALM      30.04F
HARRISBURG*    PTCLDY    44  44 100 CALM      30.07F
ROBINSON*      PTCLDY    49  46  90 S6        30.05F
CARMI*         CLEAR     45  44  99 S5        30.05F
$$

ABBREVIATIONS USED IN REMARKS
   TC - TEMPERATURE IN CELSIUS
  WCI - WIND CHILL INDEX
   HX - HEAT INDEX
  VSB - VISIBILITY
$$



USA.gov is the U.S. government's official web portal to all federal, state and local government web resources and services.